• In Hungary
  • List of Countries
  • For 7 days
  • Water Temperature
  • Satellite Maps
  • Weather Map
  • News
  • Weather Widgets
  • user-avatar
    Login

    Hourly Weather Tamarac

    Today, 21 January, Sunday

    Time Temperature Precipitation Wind Pressure Humidity
    00:00 +20°C° 0 mm 4 mps 767 mmHg 78%
    01:00 +19°C° 0 mm 4 mps 766 mmHg 79%
    02:00 +19°C° 0 mm 4 mps 766 mmHg 82%
    03:00 +19°C° 0 mm 4 mps 766 mmHg 85%
    04:00 +19°C° 0 mm 4 mps 766 mmHg 87%
    05:00 +19°C° 0 mm 4 mps 766 mmHg 88%
    06:00 +19°C° 0 mm 4 mps 766 mmHg 88%
    07:00 +19°C° 0 mm 4 mps 766 mmHg 88%
    08:00 +21°C° 0 mm 5 mps 766 mmHg 82%
    09:00 +22°C° 0 mm 5 mps 766 mmHg 75%
    10:00 +23°C° 0 mm 6 mps 767 mmHg 68%
    11:00 +24°C° 0 mm 6 mps 766 mmHg 65%
    12:00 +26°C° 0 mm 6 mps 766 mmHg 62%
    13:00 +26°C° 0 mm 5 mps 766 mmHg 59%
    14:00 +26°C° 0 mm 5 mps 765 mmHg 59%
    15:00 +26°C° 0 mm 6 mps 765 mmHg 59%
    16:00 +26°C° 0 mm 6 mps 764 mmHg 59%
    17:00 +24°C° 0 mm 6 mps 764 mmHg 64%
    18:00 +23°C° 0 mm 5 mps 765 mmHg 70%
    19:00 +21°C° 0 mm 5 mps 765 mmHg 76%
    20:00 +21°C° 0 mm 5 mps 765 mmHg 78%
    21:00 +21°C° 0 mm 5 mps 765 mmHg 81%
    22:00 +20°C° 0 mm 5 mps 765 mmHg 83%
    23:00 +20°C° 0 mm 4 mps 765 mmHg 84%

    Tomorrow, 22 January, Monday

    Time Temperature Precipitation Wind Pressure Humidity
    00:00 +20°C° 0 mm 4 mps 765 mmHg 85%
    01:00 +20°C° 0 mm 4 mps 765 mmHg 85%
    02:00 +19°C° 0 mm 4 mps 764 mmHg 86%
    03:00 +19°C° 0 mm 4 mps 764 mmHg 86%
    04:00 +19°C° 0 mm 3 mps 764 mmHg 86%
    05:00 +19°C° 0 mm 3 mps 764 mmHg 87%
    06:00 +19°C° 0 mm 3 mps 764 mmHg 88%
    07:00 +19°C° 0 mm 3 mps 764 mmHg 90%
    08:00 +21°C° 0 mm 4 mps 765 mmHg 81%
    09:00 +23°C° 0 mm 4 mps 765 mmHg 73%
    10:00 +26°C° 0 mm 5 mps 765 mmHg 64%
    11:00 +26°C° 0 mm 5 mps 765 mmHg 61%
    12:00 +27°C° 0 mm 5 mps 764 mmHg 58%
    13:00 +28°C° 0 mm 5 mps 764 mmHg 54%
    14:00 +28°C° 0 mm 5 mps 764 mmHg 56%
    15:00 +28°C° 0 mm 4 mps 763 mmHg 57%
    16:00 +27°C° 0 mm 4 mps 763 mmHg 58%
    17:00 +26°C° 0 mm 4 mps 763 mmHg 64%
    18:00 +25°C° 0 mm 4 mps 763 mmHg 70%
    19:00 +22°C° 0 mm 3 mps 763 mmHg 75%
    20:00 +22°C° 0 mm 3 mps 763 mmHg 78%
    21:00 +22°C° 0 mm 3 mps 764 mmHg 80%
    22:00 +21°C° 0 mm 3 mps 764 mmHg 83%
    23:00 +21°C° 0 mm 3 mps 764 mmHg 85%

    Day after tomorrow, 23 January, Tuesday

    Time Temperature Precipitation Wind Pressure Humidity
    00:00 +21°C° 0 mm 3 mps 763 mmHg 87%
    01:00 +21°C° 0 mm 3 mps 763 mmHg 90%
    02:00 +21°C° 0 mm 2 mps 763 mmHg 91%
    03:00 +20°C° 0 mm 2 mps 763 mmHg 92%
    04:00 +21°C° 0 mm 1 mps 762 mmHg 93%
    05:00 +21°C° 0 mm 1 mps 763 mmHg 94%
    06:00 +20°C° 0 mm 2 mps 763 mmHg 94%
    07:00 +20°C° 0 mm 2 mps 763 mmHg 95%
    08:00 +23°C° 0 mm 2 mps 764 mmHg 87%
    09:00 +24°C° 0 mm 2 mps 764 mmHg 80%
    10:00 +26°C° 0 mm 2 mps 765 mmHg 72%
    11:00 +27°C° 0 mm 2 mps 764 mmHg 65%
    12:00 +29°C° 0 mm 1 mps 764 mmHg 57%
    13:00 +30°C° 0 mm 1 mps 763 mmHg 50%
    14:00 +30°C° 0 mm 2 mps 763 mmHg 50%
    15:00 +30°C° 0 mm 2 mps 763 mmHg 51%
    16:00 +30°C° 0 mm 2 mps 762 mmHg 51%
    17:00 +28°C° 0 mm 3 mps 763 mmHg 56%
    18:00 +27°C° 0 mm 3 mps 763 mmHg 62%
    19:00 +26°C° 0 mm 3 mps 764 mmHg 67%
    20:00 +25°C° 0 mm 3 mps 764 mmHg 71%
    21:00 +25°C° 0 mm 3 mps 764 mmHg 74%
    22:00 +24°C° 0 mm 3 mps 765 mmHg 78%
    23:00 +24°C° 0 mm 3 mps 765 mmHg 80%

    24 January, Wednesday

    Time Temperature Precipitation Wind Pressure Humidity
    00:00 +22°C° 0 mm 3 mps 765 mmHg 82%
    01:00 +22°C° 0 mm 4 mps 765 mmHg 84%
    02:00 +22°C° 0 mm 4 mps 764 mmHg 85%
    03:00 +21°C° 0 mm 5 mps 764 mmHg 87%
    04:00 +21°C° 0 mm 5 mps 764 mmHg 89%
    05:00 +21°C° 0 mm 5 mps 765 mmHg 88%
    06:00 +21°C° 0 mm 6 mps 765 mmHg 87%
    07:00 +21°C° 0 mm 6 mps 765 mmHg 87%
    08:00 +21°C° 0 mm 6 mps 766 mmHg 83%
    09:00 +22°C° 0 mm 6 mps 766 mmHg 78%
    10:00 +22°C° 0 mm 6 mps 767 mmHg 74%
    11:00 +23°C° 0 mm 6 mps 766 mmHg 71%
    12:00 +23°C° 0 mm 6 mps 766 mmHg 68%
    13:00 +24°C° 0 mm 6 mps 766 mmHg 65%
    14:00 +24°C° 0 mm 6 mps 765 mmHg 65%
    15:00 +23°C° 0 mm 6 mps 765 mmHg 65%
    16:00 +23°C° 0 mm 6 mps 765 mmHg 66%
    17:00 +22°C° 0 mm 6 mps 765 mmHg 67%
    18:00 +21°C° 0 mm 6 mps 766 mmHg 68%
    19:00 +20°C° 0 mm 7 mps 766 mmHg 70%
    20:00 +20°C° 0 mm 7 mps 767 mmHg 69%
    21:00 +18°C° 0 mm 7 mps 767 mmHg 68%
    22:00 +18°C° 0 mm 7 mps 768 mmHg 67%
    23:00 +18°C° 0 mm 7 mps 767 mmHg 67%

    25 January, Thursday

    Time Temperature Precipitation Wind Pressure Humidity
    00:00 +18°C° 0 mm 7 mps 767 mmHg 67%
    01:00 +17°C° 0 mm 7 mps 767 mmHg 67%
    02:00 +17°C° 0 mm 7 mps 767 mmHg 67%
    03:00 +17°C° 0 mm 7 mps 767 mmHg 68%
    04:00 +17°C° 0 mm 6 mps 766 mmHg 69%
    05:00 +17°C° 0 mm 6 mps 767 mmHg 69%
    06:00 +17°C° 0 mm 6 mps 767 mmHg 70%
    07:00 +17°C° 0 mm 6 mps 767 mmHg 70%
    08:00 +18°C° 0 mm 7 mps 768 mmHg 66%
    09:00 +20°C° 0 mm 7 mps 768 mmHg 63%
    10:00 +22°C° 0 mm 8 mps 768 mmHg 59%
    11:00 +22°C° 0 mm 8 mps 768 mmHg 56%
    12:00 +23°C° 0 mm 8 mps 768 mmHg 54%
    13:00 +24°C° 0 mm 9 mps 767 mmHg 51%
    14:00 +24°C° 0 mm 9 mps 767 mmHg 53%
    15:00 +23°C° 0 mm 9 mps 767 mmHg 54%
    16:00 +23°C° 0 mm 9 mps 767 mmHg 56%
    17:00 +22°C° 0 mm 9 mps 767 mmHg 61%
    18:00 +21°C° 0 mm 8 mps 768 mmHg 65%
    19:00 +20°C° 0 mm 8 mps 768 mmHg 70%
    20:00 +20°C° 0 mm 8 mps 768 mmHg 71%
    21:00 +20°C° 0 mm 8 mps 768 mmHg 72%
    22:00 +20°C° 0 mm 8 mps 769 mmHg 73%
    23:00 +20°C° 0 mm 8 mps 769 mmHg 72%

    26 January, Friday

    Time Temperature Precipitation Wind Pressure Humidity
    00:00 +20°C° 0 mm 8 mps 768 mmHg 71%
    01:00 +19°C° 0 mm 9 mps 768 mmHg 70%
    02:00 +19°C° 0 mm 9 mps 768 mmHg 71%
    03:00 +18°C° 0 mm 9 mps 768 mmHg 72%
    04:00 +18°C° 0 mm 9 mps 768 mmHg 74%
    05:00 +18°C° 0 mm 9 mps 768 mmHg 73%
    06:00 +18°C° 0 mm 9 mps 768 mmHg 71%
    07:00 +19°C° 0 mm 10 mps 769 mmHg 70%
    08:00 +19°C° 0 mm 10 mps 769 mmHg 68%
    09:00 +21°C° 0 mm 10 mps 770 mmHg 66%
    10:00 +21°C° 0 mm 10 mps 770 mmHg 64%
    11:00 +21°C° 0 mm 10 mps 770 mmHg 64%
    12:00 +21°C° 0 mm 10 mps 769 mmHg 64%
    13:00 +21°C° 0 mm 10 mps 769 mmHg 64%
    14:00 +21°C° 0 mm 10 mps 769 mmHg 64%
    15:00 +21°C° 0 mm 10 mps 768 mmHg 64%
    16:00 +21°C° 0 mm 10 mps 768 mmHg 64%
    17:00 +21°C° 0 mm 10 mps 768 mmHg 65%
    18:00 +19°C° 0 mm 10 mps 769 mmHg 65%
    19:00 +19°C° 0 mm 10 mps 769 mmHg 65%
    20:00 +19°C° 0 mm 10 mps 769 mmHg 66%
    21:00 +19°C° 0 mm 10 mps 770 mmHg 66%
    22:00 +19°C° 0 mm 10 mps 770 mmHg 67%
    23:00 +19°C° 0 mm 10 mps 769 mmHg 67%
    Show more